sat.trackr.live / text

‹ back to catalog

EXPRESS-AT1

NORAD 39612 · 2014-010A

PAYLOAD ACTIVE UNKNOWN

§ Identity

Operator
Country
CIS
Launch date
2014-03-15
Launch site
TYMSC
Launch vehicle
Mass (kg)
RCS (m²)
3.62

Purposes: comms

External: N2YO · Heavens-Above · Gunter

§ Orbital elements

Epoch: 2026-05-25T04:01:38.130816Z

Period
1,435.73 min
Inclination
0.1999°
Eccentricity
0.0002997
Mean motion
1.00297453 rev/d
Perigee alt
35,766.8 km
Apogee alt
35,792.0 km
Semi-major
42,157.5 km
B*
0.0000e+0
RAAN
85.7679°
Arg perigee
29.7584°
Mean anomaly
247.5323°
Rev number
4,458

§ Raw data

EXPRESS-AT11 39612U 14010A   26145.16780244  .00000043  00000+0  00000+0 0  99922 39612   0.1999  85.7679 0002997  29.7584 247.5323  1.00297453 44583

JSON: /api/v1/satellites/39612 · /tle

For live sub-satellite position, see the globe view (requires WebGL).

§ Visibility from observer

Set your observer location to see the next 7 days of passes ≥ 10°. The values pass through the URL so the page stays shareable.

No JS? Fill the form by hand. The geolocation button needs JavaScript.